GW5292 Weather Reports


time (UTC)temp
F
wind
direction
speed
knots
gust
knots
rain 1hr
in
rain 24hr
in
rain mn
in
humidity
%
barometer
mb
20260904231511 78 116 0.0 0.0 0.00 0.20 0.00 82 1011.1
20260904230014 79 116 0.0 0.0 0.00 0.20 0.00 79 1011.1
20260904224520 80 116 0.0 0.0 0.00 0.20 0.00 78 1011.1
20260904223028 81 116 0.0 1.7 0.00 0.20 0.00 76 1011.3
20260904221531 81 116 0.0 1.7 0.00 0.20 0.00 73 1011.5
20260904220024 81 116 0.0 1.7 0.00 0.20 0.00 75 1011.5
20260904214517 81 150 0.0 0.0 0.00 0.20 0.00 72 1011.5
20260904213024 82 150 0.0 1.7 0.00 0.20 0.00 71 1011.6
20260904211530 82 193 0.0 1.7 0.00 0.20 0.00 71 1011.5
20260904210037 82 181 0.0 1.7 0.00 0.20 0.00 70 1011.5
20260904204515 83 184 0.9 2.6 0.00 0.20 0.00 67 1011.5
20260904203033 83 127 0.0 1.7 0.00 0.20 0.00 68 1011.3
20260904201528 83 156 0.0 1.7 0.00 0.20 0.00 66 1011.2
20260904200037 83 202 0.0 1.7 0.00 0.20 0.00 69 1011.5
20260904194547 82 52 0.0 1.7 0.00 0.20 0.00 68 1011.7
20260904193021 83 137 0.0 1.7 0.00 0.20 0.00 68 1012.2
20260904191538 83 126 0.9 2.6 0.00 0.20 0.00 68 1012.3
20260904190032 83 159 0.9 2.6 0.00 0.20 0.00 66 1012.4
20260904184534 84 178 0.9 4.3 0.00 0.20 0.00 66 1012.6
20260904183017 84 164 0.9 2.6 0.00 0.20 0.00 66 1012.8
20260904181523 84 179 1.7 2.6 0.00 0.20 0.00 65 1012.9
20260904180029 84 186 0.9 3.5 0.00 0.20 0.00 66 1012.9
20260904174556 84 169 0.9 3.5 0.00 0.20 0.00 67 1013.2
20260904173035 83 183 0.9 1.7 0.00 0.20 0.00 67 1013.1
20260904171505 83 170 0.0 3.5 0.00 0.20 0.00 68 1013.0
20260904170004 82 190 0.9 2.6 0.00 0.20 0.00 71 1012.9
20260904164507 82 159 0.9 2.6 0.00 0.20 0.00 71 1013.2
20260904163004 82 236 0.9 3.5 0.00 0.20 0.00 69 1013.4
20260904161505 81 30 0.9 4.3 0.00 0.20 0.00 74 1013.3
20260904160006 81 159 0.0 1.7 0.00 0.20 0.00 71 1013.3
20260904154504 82 219 0.9 2.6 0.00 0.20 0.00 69 1013.3
20260904153008 81 228 0.9 2.6 0.00 0.20 0.00 73 1013.5
20260904151507 82 319 0.0 1.7 0.00 0.20 0.00 76 1013.4
20260904150010 80 11 0.9 2.6 0.00 0.20 0.00 77 1013.5
20260904144508 79 190 0.9 2.6 0.00 0.20 0.00 76 1013.6
20260904143006 78 209 0.9 3.5 0.00 0.20 0.00 77 1013.6
20260904141509 76 184 0.9 1.7 0.00 0.20 0.00 81 1013.6
20260904140011 76 196 0.0 4.3 0.00 0.20 0.00 80 1013.7
20260904134511 76 187 1.7 3.5 0.00 0.20 0.00 81 1013.6
20260904133013 75 182 0.9 2.6 0.00 0.20 0.00 82 1013.6
20260904131512 75 186 0.9 2.6 0.00 0.20 0.00 86 1013.7
20260904130012 74 215 0.9 1.7 0.00 0.20 0.00 86 1013.7
20260904124513 74 181 0.9 1.7 0.00 0.20 0.00 87 1013.8
20260904123014 73 198 0.0 1.7 0.00 0.20 0.00 89 1013.7
20260904121513 72 192 0.0 1.7 0.00 0.20 0.00 91 1013.5
20260904120017 71 207 0.9 1.7 0.00 0.20 0.00 93 1013.8
20260904114515 71 194 0.0 1.7 0.00 0.20 0.00 94 1013.6
20260904113020 70 198 0.0 1.7 0.00 0.20 0.00 95 1013.4
20260904111519 69 195 0.9 1.7 0.00 0.20 0.00 95 1013.4
20260904110036 69 199 0.0 0.0 0.00 0.21 0.00 94 1013.3
20260904104518 70 199 0.0 0.9 0.00 0.21 0.00 94 1013.0
20260904103023 70 199 0.0 1.7 0.00 0.21 0.00 93 1012.8
20260904101524 70 197 0.9 1.7 0.00 0.22 0.00 94 1012.8
20260904100025 70 201 0.9 1.7 0.00 0.24 0.00 94 1012.7
20260904094523 70 189 0.9 1.7 0.00 0.25 0.00 94 1012.8
20260904093023 71 189 0.9 1.7 0.00 0.25 0.00 93 1012.9
20260904091525 71 207 0.9 2.6 0.00 0.25 0.00 93 1012.9
20260904090028 71 203 1.7 2.6 0.00 0.25 0.00 94 1012.9
20260904084526 71 188 0.9 1.7 0.00 0.26 0.00 95 1012.8
20260904083029 72 209 0.9 1.7 0.00 0.29 0.00 95 1012.6
20260904081526 72 198 1.7 2.6 0.00 0.33 0.00 96 1012.7
20260904080008 72 199 1.7 1.7 0.00 0.36 0.00 97 1012.4
20260904074515 71 155 0.0 0.9 0.00 0.40 0.00 97 1012.5
20260904073017 72 42 0.0 0.0 0.00 0.43 0.00 96 1012.4
20260904071522 72 42 0.0 0.0 0.00 0.49 0.00 96 1012.2
20260904070043 72 42 0.0 0.0 0.00 0.52 0.00 96 1011.7
20260904064508 72 42 0.0 0.0 0.00 0.52 0.00 96 1011.7
20260904063016 72 41 0.0 0.0 0.00 0.52 0.00 95 1011.3
20260904061524 73 41 0.0 0.0 0.00 0.52 0.00 96 1011.6
20260904060032 73 41 0.0 0.0 0.00 0.52 0.00 96 1011.8
20260904054533 73 41 0.0 0.0 0.00 0.52 0.00 96 1011.8
20260904053013 73 41 0.0 0.0 0.00 0.52 0.00 95 1012.1
20260904051517 74 41 0.0 0.0 0.00 0.58 0.00 95 1012.2
20260904050026 74 42 0.0 0.0 0.00 0.84 0.00 95 1012.3
20260904044535 74 42 0.0 0.0 0.17 1.09 0.00 95 1012.3
20260904043035 75 42 0.0 0.0 0.20 1.21 0.00 94 1012.5
20260904041516 75 42 0.0 2.6 0.20 1.21 0.00 94 1012.5
20260904040023 76 338 0.0 1.7 0.20 1.21 0.00 92 1012.8
20260904034544 77 212 2.6 4.3 0.03 1.04 1.04 88 1013.2
20260904033034 76 208 0.0 1.7 0.00 1.01 1.01 87 1012.7
20260904031534 76 208 0.0 0.0 0.00 1.01 1.01 88 1013.1
20260904030020 76 208 0.0 0.9 0.00 1.01 1.01 88 1013.2
20260904024526 76 208 0.0 0.9 0.00 1.01 1.01 89 1013.3
20260904023029 76 208 0.0 0.9 0.00 1.01 1.01 88 1012.9
20260904021531 77 208 0.0 0.0 0.00 1.01 1.01 86 1012.9
20260904020036 78 208 0.0 0.0 0.00 1.01 1.01 84 1013.0
20260904014523 78 208 0.0 1.7 0.00 1.01 1.01 83 1013.4
20260904013027 79 208 0.0 0.0 0.00 1.01 1.01 81 1013.5
20260904011557 79 208 0.9 2.6 0.00 1.01 1.01 81 1013.3
20260904010036 78 213 0.9 1.7 0.00 1.01 1.01 82 1013.5
20260904004532 79 208 0.0 1.7 0.00 1.01 1.01 82 1013.5
20260904003027 79 208 0.9 1.7 0.00 1.01 1.01 81 1013.7
20260904001506 79 213 0.0 1.7 0.00 1.01 1.01 80 1013.6
20260904000013 79 200 0.9 1.7 0.00 1.01 1.01 80 1013.0
20260903234534 79 200 0.0 0.0 0.00 1.01 1.01 81 1012.9
20260903233026 80 200 0.0 1.7 0.00 1.01 1.01 79 1013.2